Home   Weather   Mamoutzou   Past weeks

Flag for Mayotte Past Weather in Mamoutzou, Mayotte — Yesterday and Last 2 Weeks

79 °F


Feels Like: 82 °F
Forecast: 74 / 81 °F
Wind: 3 mph from North

Location: Dzaoudzi / Pamanzi Mayotte

Current Time: Oct 28, 2016 at 11:08:25 PM

Latest Report: Oct 28, 2016 at 10:30 PM

Visibility: N/A

Pressure: 30.01 "Hg

Humidity: 84%

Dew Point: 73 °F

Location of MamoutzouLocation

Past Weather in Mamoutzou — Graph


Mamoutzou Temperature Yesterday

Maximum temperature yesterday: 88 °F (at 11:00 AM)
Minimum temperature yesterday: 75 °F (at 1:30 AM)
Average temperature yesterday: 82 °F

High & Low Weather Summary for the Past Weeks

High88 °F (Oct 25, 12:30 PM)94% (Oct 24, 6:00 AM)30.07 "Hg (Oct 24, 6:00 AM)
Low72 °F (Oct 21, 1:00 AM)55% (Oct 14, 2:05 PM)29.86 "Hg (Oct 25, 3:30 PM)
Average80 °F72%29.98 "Hg
* Reported Oct 13 10:00 PM — Oct 28 10:00 PM, Mamoutzou, Weather by CustomWeather, © 2016

Note: Actual official high and low records may vary slightly from our data, if they occured in-between our weather recording intervals... More about our weather records


Mamoutzou Weather History for the Previous 24 Hours

Scroll right to see more
Time TempWeatherWind HumidityBarometerVisibility
10:00 PM
Fri, Oct 28
81 °FPassing clouds.5 mph79%30.01 "HgN/A
9:30 PM81 °FPassing clouds.5 mph79%30.01 "HgN/A
9:00 PM81 °FPassing clouds.5 mph79%30.01 "HgN/A
8:30 PM81 °FPassing clouds.5 mph79%30.01 "HgN/A
8:00 PM81 °FPassing clouds.5 mph79%29.98 "HgN/A
7:30 PM81 °FPassing clouds.7 mph79%29.98 "HgN/A
7:00 PM81 °FPassing clouds.9 mph79%29.98 "HgN/A
6:30 PM81 °FPassing clouds.8 mph79%29.98 "HgN/A
6:00 PM81 °FPassing clouds.8 mph79%29.98 "HgN/A
5:30 PM82 °FScattered clouds.6 mph74%29.95 "HgN/A
5:00 PM84 °FScattered clouds.8 mph66%29.95 "HgN/A
4:30 PM84 °FPassing clouds.9 mph70%29.95 "HgN/A
4:00 PM86 °FPassing clouds.10 mph66%29.95 "HgN/A
3:30 PM86 °FScattered clouds.6 mph66%29.95 "HgN/A
3:00 PM84 °FScattered clouds.3 mph66%29.95 "HgN/A
2:30 PM86 °FPassing clouds.3 mph62%29.95 "HgN/A
2:00 PM86 °FPassing clouds.6 mph62%29.98 "HgN/A
1:30 PM86 °FPassing clouds.6 mph62%29.98 "HgN/A
1:00 PM86 °FPassing clouds.7 mph62%29.98 "HgN/A
12:30 PM86 °FPassing clouds.7 mph62%29.98 "HgN/A
12:00 PM86 °FPassing clouds.7 mph62%30.01 "HgN/A
11:30 AM86 °FScattered clouds.6 mph66%30.01 "HgN/A
11:00 AM86 °FScattered clouds.6 mph66%30.01 "HgN/A
10:30 AM86 °FScattered clouds.7 mph66%30.04 "HgN/A
10:00 AM84 °FPassing clouds.6 mph66%30.04 "HgN/A
9:30 AM84 °FPassing clouds.3 mph66%30.04 "HgN/A
9:00 AM84 °FPassing clouds.6 mph66%30.04 "HgN/A
8:30 AM84 °FPassing clouds.5 mph70%30.04 "HgN/A
8:00 AM84 °FPassing clouds.6 mph66%30.04 "HgN/A
7:30 AM82 °FPassing clouds.5 mph70%30.04 "HgN/A
7:00 AM81 °FPassing clouds.3 mph74%30.04 "HgN/A
6:30 AM77 °FPassing clouds.No wind89%30.01 "HgN/A
6:00 AM77 °FScattered clouds.No wind83%30.01 "HgN/A
5:30 AM77 °FPassing clouds.5 mph83%29.98 "HgN/A
5:00 AM77 °FPassing clouds.6 mph83%29.98 "HgN/A
4:30 AM77 °FPassing clouds.6 mph83%29.98 "HgN/A
4:00 AM77 °FPassing clouds.2 mph83%29.98 "HgN/A
3:30 AM77 °FWarm.3 mph83%29.98 "HgN/A
3:00 AM75 °FPassing clouds.3 mph89%29.95 "HgN/A
2:30 AM75 °FMild.No wind89%29.95 "HgN/A
2:00 AM75 °FMild.2 mph89%29.95 "HgN/A
1:30 AM75 °FPassing clouds.3 mph89%29.95 "HgN/A
1:00 AM77 °FPassing clouds.3 mph83%29.95 "HgN/A
12:30 AM77 °FPassing clouds.3 mph83%29.98 "HgN/A
12:00 AM79 °FPassing clouds.3 mph79%29.98 "HgN/A
11:30 PM
Thu, Oct 27
77 °FPassing clouds.2 mph83%29.98 "HgN/A
11:00 PM77 °FPassing clouds.3 mph83%29.98 "HgN/A
Weather by CustomWeather, © 2016

See weather overviewHow to use our weather pages